Flag for U.S.A. Weather past 2 weeks in Dallas, Texas, U.S.A.

Now
94 °F

Sunny.


Feels Like: 95 °F
Forecast: 77 / 96 °F
Wind: 7 mph from Southeast

Location: Dallas Love Field

Current Time: Jul 24, 2014 at 6:11:41 PM

Latest Report: Jul 24, 2014 at 5:53 PM


Visibility: 10 mi

Pressure: 29.93 "Hg

Humidity: 35%

Dew point: 62 °F

Location of DallasLocation

Historic Weather in Dallas — Graph

°F

Dallas temperature yesterday

Maximum temperature yesterday: 94 °F (at 2:53 PM)
Minimum temperature yesterday: 75 °F (at 11:53 PM)
Average temperature yesterday: 85 °F

Past Weeks' High & Low Weather Summary

 TemperatureHumidityPressure
High100 °F (Jul 13, 3:53 PM)93% (Jul 17, 9:53 AM)30.15 "Hg (Jul 17, 9:53 AM)
Low65 °F (Jul 18, 6:53 AM)22% (Jul 15, 3:53 PM)29.85 "Hg (Jul 16, 7:53 PM)
Average83 °F60%29.99 "Hg
* Reported Jul 9 4:53 PM — Jul 24 4:53 PM, Dallas, Weather by CustomWeather, © 2014

Note: Actual official high and low records may vary slightly from our data, if they occured in-between our weather recording intervals... More about our weather records

Advertising

Dallas weather history for previous 24 hours

 ConditionsComfort  
Time TempWeatherWind HumidityBarometerVisibility
4:53 PM
Jul 24
94 °FSunny.7 mph37%29.95 "Hg10 mi
3:53 PM95 °FSunny.N/A35%29.96 "Hg10 mi
2:53 PM92 °FSunny.7 mph40%29.98 "Hg10 mi
1:53 PM93 °FPassing clouds.6 mph36%29.99 "Hg10 mi
12:53 PM90 °FPassing clouds.6 mph43%30.01 "Hg10 mi
11:53 AM87 °FPassing clouds.7 mph50%30.03 "Hg10 mi
10:53 AM84 °FPassing clouds.5 mph61%30.05 "Hg10 mi
9:53 AM79 °FScattered clouds.6 mph74%30.06 "Hg10 mi
8:53 AM77 °FPartly sunny.7 mph79%30.05 "Hg10 mi
7:53 AM75 °FPartly sunny.6 mph85%30.05 "Hg10 mi
6:53 AM74 °FPassing clouds.6 mph88%30.04 "Hg10 mi
5:53 AM74 °FPartly cloudy.3 mph85%30.03 "Hg10 mi
4:53 AM75 °FPassing clouds.5 mph82%30.01 "Hg10 mi
3:53 AM75 °FClear.8 mph82%30.00 "Hg10 mi
2:53 AM78 °FClear.5 mph66%29.96 "Hg10 mi
1:53 AM77 °FPassing clouds.8 mph71%29.96 "Hg10 mi
12:53 AM76 °FMostly cloudy.6 mph77%29.98 "Hg10 mi
11:53 PM
Jul 23
75 °FPartly cloudy.No wind85%30.01 "Hg10 mi
10:53 PM78 °FThunderstorms. Partly cloudy.13 mph69%30.07 "Hg10 mi
9:53 PM78 °FOvercast.13 mph66%30.06 "Hg10 mi
8:53 PM82 °FOvercast.22 mph63%30.03 "Hg10 mi
7:53 PM92 °FOvercast.12 mph47%29.99 "Hg10 mi
6:53 PM93 °FOvercast.7 mph44%29.98 "Hg10 mi
Weather by CustomWeather, © 2014

See weather overviewHow to use our weather pages